This demonstration page uses our WeatherBlox Daily Observations layout. Learn more.

Left ArrowRight Arrow

Hourly Observations for September 17, 2017

Temp ( °F °C ) Dew Point ( °F °C ) Humidity (%) Winds ( mph kmh ) Pressure ( in mb ) Visibility ( mi km ) Precip ( " mm )
12:51 am 00:51 Clear 73 22.8 46 7.8 38 38 SSE 5 7 29.79 1009 10 16 N/A
1:51 am 01:51 Clear 71 21.7 45 7.2 39 39 ESE 3 6 29.79 1009 10 16 N/A
2:51 am 02:51 Clear 67 19.4 44 6.7 44 44 N N/A 29.80 1009 10 16 N/A
3:51 am 03:51 Clear 67 19.4 45 7.2 45 45 ENE 7 11 29.81 1010 10 16 N/A
4:51 am 04:51 Clear 64 17.8 44 6.7 48 48 N N/A 29.83 1010 10 16 N/A
5:51 am 05:51 Clear 66 18.9 45 7.2 47 47 SSE 5 7 29.85 1011 10 16 N/A
6:51 am 06:51 Sunny 66 18.9 46 7.8 49 49 N N/A 29.87 1012 10 16 N/A
7:51 am 07:51 Sunny 79 26.1 48 8.9 34 34 E 8 13 29.85 1011 10 16 N/A
8:51 am 08:51 Sunny 82 27.8 50 10 33 33 ESE 9 15 29.87 1011 10 16 N/A
9:51 am 09:51 Sunny 85 29.4 50 10 30 30 ESE 10 17 29.86 1011 10 16 N/A
10:51 am 10:51 Sunny 88 31.1 51 10.6 28 28 SSE 8 13 29.85 1011 10 16 N/A
11:51 am 11:51 Sunny 93 33.9 43 6.1 18 18 SSE 16 26 29.81 1010 10 16 N/A
12:51 pm 12:51 Mostly Sunny 94 34.4 37 2.8 14 14 SSW 9 15 29.79 1009 10 16 N/A
1:51 pm 13:51 Partly Cloudy 93 33.9 42 5.6 17 17 N N/A 29.77 1008 10 16 N/A
2:51 pm 14:51 Sunny 94 34.4 42 5.6 17 17 ENE 6 9 29.75 1008 10 16 N/A
3:51 pm 15:51 Sunny 93 33.9 40 4.4 16 16 SSW 3 6 29.74 1007 10 16 N/A
4:51 pm 16:51 Sunny 93 33.9 40 4.4 16 16 SSW 3 6 29.74 1007 10 16 N/A
5:51 pm 17:51 Mostly Cloudy 92 33.3 42 5.6 18 18 WNW 14 22 29.74 1007 10 16 N/A
6:51 pm 18:51 Mostly Clear 87 30.6 39 3.9 18 18 WNW 10 17 29.76 1008 10 16 N/A
7:51 pm 19:51 Clear 84 28.9 38 3.3 19 19 WNW 12 19 29.76 1008 10 16 N/A
8:51 pm 20:51 Clear 81 27.2 37 2.8 21 21 NW 10 17 29.78 1008 10 16 N/A
9:51 pm 21:51 Clear 79 26.1 37 2.8 22 22 NW 12 19 29.80 1009 10 16 N/A
10:51 pm 22:51 Clear 76 24.4 40 4.4 27 27 WNW 9 15 29.80 1009 10 16 N/A
11:51 pm 23:51 Clear 74 23.3 40 4.4 29 29 NW 9 15 29.80 1009 10 16 N/A

Powered by AerisWeather